Flag for USA

Past Weather in Charleston, South Carolina, USA — March 2016

Now
82 °F

Broken clouds.


Feels Like: 83 °F
Forecast: 81 / 67 °F
Wind: 3 mph from Southeast

Location: Charleston Air Force Base Reporting Station
Current Time: Oct 24, 2020 at 3:52:36 pm
Latest Report: Oct 24, 2020 at 2:56 pm
Visibility: 10 mi
Pressure29.94 "Hg
Humidity: 55%
Dew Point: 64 °F
Location of CharlestonLocation

March 2016 Weather in Charleston — Graph

°F

High & Low Weather Summary for March 2016

 TemperatureHumidityPressure
High88 °F (Mar 16, 4:56 pm)97% (Mar 12, 7:56 am)30.40 "Hg (Mar 12, 7:56 am)
Low37 °F (Mar 5, 5:56 am)20% (Mar 2, 2:56 pm)29.77 "Hg (Mar 25, 1:56 am)
Average64 °F69%30.07 "Hg
* Reported Mar 1 12:56 am — Mar 31 11:56 pm, Charleston. Weather by CustomWeather, © 2020

Note: Actual official high and low records may vary slightly from our data, if they occured in-between our weather recording intervals... More about our weather records

Charleston Weather History for March 1, 2016

Scroll right to see more
 ConditionsComfort  
Time TempWeatherWind HumidityBarometerVisibility
12:56 am
Tue, Mar 1
54 °FPassing clouds.3 mph80%30.11 "Hg10 mi
1:56 am55 °FPassing clouds.5 mph80%30.11 "Hg10 mi
2:56 am54 °FPassing clouds.5 mph83%30.09 "Hg10 mi
3:56 am56 °FPassing clouds.3 mph84%30.09 "Hg10 mi
4:56 am55 °FPassing clouds.No wind87%30.09 "Hg10 mi
5:56 am55 °FPassing clouds.5 mph87%30.10 "Hg10 mi
6:56 am54 °FPartly sunny.5 mph86%30.11 "Hg10 mi
7:56 am58 °FPartly sunny.5 mph84%30.12 "Hg10 mi
8:56 am63 °FPartly sunny.7 mph68%30.14 "Hg10 mi
9:56 am69 °FScattered clouds.9 mph57%30.13 "Hg10 mi
10:56 am73 °FScattered clouds.9 mph48%30.11 "Hg10 mi
11:56 am72 °FPartly sunny.10 mph44%30.09 "Hg10 mi
12:56 pm75 °FBroken clouds.14 mph39%30.05 "Hg10 mi
1:56 pm75 °FBroken clouds.17 mph39%30.02 "Hg10 mi
2:56 pm73 °FBroken clouds.18 mph43%30.01 "Hg10 mi
3:56 pm74 °FPassing clouds.17 mph36%29.99 "Hg10 mi
4:56 pm72 °FSunny.16 mph40%29.98 "Hg10 mi
5:56 pm66 °FPassing clouds.14 mph52%29.97 "Hg10 mi
6:56 pm60 °FPassing clouds.10 mph67%29.99 "Hg10 mi
7:56 pm59 °FClear.10 mph69%29.97 "Hg10 mi
8:56 pm59 °FClear.10 mph72%29.94 "Hg10 mi
9:56 pm59 °FClear.10 mph75%29.93 "Hg10 mi
10:56 pm62 °FPassing clouds.16 mph65%29.92 "Hg10 mi
11:56 pm64 °FPassing clouds.21 mph70%29.90 "Hg10 mi
Weather by CustomWeather, © 2020

See weather overview